Central Sonoma County Latest

28 Stations

15 Minute Data | America/Los_Angeles
as of 8/5/21 2:26 AM PDT
Station Date Time Temp (°F) RH (%) Dew Pt (°F) Wind Spd (mph) Wind Dir (°) Wind Gust (mph) Latest Rain (In) Daily Rain (In) Daily Min Temp (°F) Daily Max Temp (°F)
Healdsburg-South (Sodini) 8/5/21 0215 56.7   1.0 90   1 53.8   0.6 3.3 S | 170 5.8   0.7 0.00 0.00 56.4   1.3 57.4   1.5
Windsor-NW (Ranch 8) 8/5/21 0215 57.0   2.0 84   2 52.2   1.4 0.0 N | 0 0.0   0.0 0.00 0.00 56.7   1.9 57.3   1.6
Windsor-East (Ranch 16) 8/5/21 0215 56.4   0.6 92   2 54.2   1.1 2.7 SSE | 160 5.6   0.9 0.00 0.00 56.3   0.6 57.0   0.8
Mark West-North (Ranch 14) 8/5/21 0215 56.6   1.1 91   3 53.9   0.3 1.5 S | 178 4.4   0.4 0.00 0.00 56.5   1.3 57.0   1.0
Windsor-SE (Silk Rd) 8/5/21 0215 57.0   1.5 91   5 54.4   0.1 2.2 ESE | 118 5.1   0.9 0.00 0.00 56.6   1.5 57.1   1.4
Fulton-NW (Ranch 5) 8/5/21 0215 56.5   1.3 93   3 54.4   0.5 2.6 S | 172 5.0   0.0 0.00 0.00 56.2   1.2 57.2   1.3
Windsor-South (Laughlin Rd) 8/5/21 0215 56.4   1.2 - - - - - 0.00 0.00 56.1   1.4 56.8   1.2
Fulton-SE (Barnes Rd) 8/5/21 0215 56.4   0.9 91   1 53.7   0.4 2.2 ENE | 61 5.5   0.5 0.00 0.00 56.2   0.8 56.9   0.4
Fulton-SW (Ranch 21) 8/5/21 0215 56.5   1.6 90   6 53.7   0.0 1.1 S | 174 3.1   2.4 0.00 0.00 56.2   1.5 56.7   1.4
Santa Rosa-NW (Goldfields) 8/5/21 0215 56.6   1.9 91   7 54.0   0.1 1.4 SSE | 167 3.2   2.4 0.00 0.00 56.3   1.7 56.8   1.4
NW Santa Rosa (Piner Road) 8/5/21 0215 56.5   1.6 90   5 53.8   0.1 0.4 SSW | 213 3.2   1.1 0.00 0.00 56.2   1.4 56.7   1.2
River Rd South (Denner Ranch) 8/5/21 0215 56.1   1.8 92   6 53.7   0.0 2.5 SE | 143 5.0   2.8 0.00 0.00 54.6   0.5 56.4   1.6
West Santa Rosa (Hawk's Roost) 8/5/21 0215 56.7   1.5 90   6 53.8   0.2 1.0 S | 186 3.5   0.7 0.00 0.00 55.0   0.0 56.7   1.4
Guerneville Rd (Prokopakis) 8/5/21 0215 56.8   1.8 91   7 54.1   0.2 - - - 0.00 0.00 53.7   1.2 56.9   1.6
Guerneville Rd West (Balletto) 8/5/21 0215 56.4   1.0 91   4 54.0   0.0 0.3 SSW | 213 1.4   2.6 0.00 0.00 54.7   0.4 56.7   1.1
Guerneville Rd East (Rich Ranch) 8/5/21 0215 56.9   1.9 89   7 53.7   0.3 - - - - - 56.8   1.8 57.3   1.7
Occidental Rd (Sebastopol) 8/5/21 0215 56.5   1.3 100   0 56.5   1.3 1.2 W | 264 3.5   0.7 0.00 0.00 56.1   1.1 56.9   1.1
Lower Westside Rd (Ranch 12) 8/5/21 0215 56.5   2.3 90   7 53.8   0.3 2.3 W | 261 4.3   2.6 0.00 0.00 56.4   2.4 56.9   2.6
Guerneville (Laughlin Rd) 8/5/21 0215 56.6   5.5 90   3 53.8   4.5 0.2 WNW | 302 1.4   1.1 0.00 0.00 56.4   9.6 56.7   4.9
Korbel (Winery) 8/5/21 0215 57.2   2.7 91   1 54.7   2.3 1.6 NW | 310 3.8   0.4 0.00 0.00 56.6   4.0 57.3   2.7
Forestville (Shone Farms) 8/5/21 0215 57.1   2.6 90   6 54.2   0.9 1.4 WSW | 249 4.4   2.7 0.00 0.00 56.3   2.5 58.3   2.9
Forestville-NE (Ranch 30) 8/5/21 0215 56.6   2.9 91   6 53.8   1.1 1.9 NW | 308 5.4   2.8 0.00 0.00 56.4   2.9 57.2   3.1
Graton-West (Dutton Ranch) 8/5/21 0215 55.7   0.8 100   0 55.7   0.8 0.4 N | 4 1.5   0.7 0.00 0.00 51.5   3.0 56.0   0.7
Graton-South (Mill Station Rd) 8/5/21 0215 56.3   1.4 92   5 53.9   0.1 0.5 NW | 321 1.8   0.7 0.00 0.00 54.3   0.1 56.5   1.3
Occidental (Horseshoe Bend) 8/5/21 0215 53.9   0.8 97   3 53.0   0.1 - - - - - 53.8   0.9 54.3   0.9
Sexton Valley (Jacqueline's Blk) 8/5/21 0215 56.1   1.7 91   5 53.6   0.3 0.9 WSW | 248 2.2   0.5 0.00 0.00 56.0   1.7 56.4   1.1
Sebastopol Hills (Burnside Rd) 8/5/21 0215 54.1   0.6 99   1 53.9   0.3 2.4 W | 260 5.3   2.4 0.00 0.00 54.0   0.7 54.7   0.7
Seaview/Fort Ross (Hirsch) 8/5/21 0215 50.1   19.3 97   70 49.2   15.4 3.4 N | 11 5.6   2.6 0.00 0.00 49.9   18.9 50.9   19.5
Max     57.2 100 56.5 3.4 - 5.8 0.00 0.00 56.8 58.3
Avg     56.1 92 53.8 1.6 - 3.7 0.00 - - -
Min     50.1 84 49.2 0.0 - 0.0 0.00 0.00 49.9 50.9